Location: Madrid
(40.4167°N, 3.7036°W)
Time: 19:41:53
(UTC+00:00)

ISS - Pass Details

Date: 10 July 2025
Orbit: 413 x 417 km, 51.6° (Epoch: 13 July)

Event Time Altitude Azimuth Distance (km) Brightness Sun altitude
Rises 22:20:14 0° 282° (WNW) 2,349 0.7 -21.5°
Reaches altitude 10° 22:22:57 10° 306° (NW) 1,489 -0.1 -21.8°
Maximum altitude 22:25:04 16° 345° (NNW) 1,191 -0.5 -22.0°
Drops below altitude 10° 22:27:12 10° 25° (NNE) 1,492 -0.5 -22.2°
Sets 22:29:55 0° 49° (NE) 2,358 0.2 -22.4°
